COSMOS 1375 DEB, 16387

Orbit data source: Space-Track

COSMOS 1375 DEB, 16387 is space debris in LEO originally from a launch on Sun, 06 Jun 1982 UTC launched from the Plesetsk Missile And Space Complex (PKMTR). Debris objects in space refer to the collection of defunct objects orbiting the Earth. Examples of debris include non-operational satellites, rocket bodies, and fragments generated from explosions, collisions, or faulty payload assembly.

Loading next visibility...
Identifier
16387, 1982-055AB
Orbit
LEO
Country
Flag of CISCIS
Related business
Manufacturer
Unknown
Mission
Spacecraft
Bus & Motor
Unknown
Mass
Unknown
Launch date (UTC)
1982-06-06 (44 years ago)
Launch vehicle
Unknown
Launch site
Plesetsk Missile And Space Complex (PKMTR)
Object type
Payload
Rocket body
Debris
Shape & HBR
Unknown shape, 0.3 m
Radar Cross Section
Medium (>0.1 m² and <1 m²)

Expand to show TLE details & history
Last TLE update: 2 days ago

TLE from 2 days ago
0 COSMOS 1375 DEB
1 16387U 82055AB  26171.37265127 -.00000055  00000-0  23949-4 0  9997
2 16387  65.8348 155.0795 0043467  52.7962  96.4772 13.84955739 55445
Epoch: 2026-06-20T08:56Z
TLE epoch observation values (Epoch: 2026-06-20T08:56:37.069Z)
Latitude
27.40247°
Longitude
-81.04208°
Altitude
952.532 km
Speed
7.376 km/s
True Right ascension
21h 26m 48s
True Declination
27° 15' 57"
Sunlit
Object was in daylight at epoch
Visualization orbit readout
Latitude
Unknown
Longitude
Unknown
Altitude
Unknown
Speed
Unknown
Apparent Right ascension
Unknown
Apparent Declination
Unknown
Sunlit
N/A
Visualization observer readout
Local Sidereal Time
23:08:13
Azimuth
Unknown
Elevation
Unknown
Doppler factor
Unknown
Orbital elements
Apogee altitude
976.702 km
Perigee altitude
913.041 km
Semi-major axis
7,323.009 km
Eccentricity
0.00435
Inclination
65.8348°
RAAN
155.0795°
Arg. of periapsis
52.7962°
True anomaly
96.97181°
Mean anomaly
96.4772°
Eccentric anomaly
96.72453°
Mean motion
3.46345 °/min
Orbital period
103.94 mins
BSTAR
0.000023949
Loading maneuver chart data...
Computing Atmospheric mass density...
Loading historical data...
Loading historical data...
Loading historical data...
Loading historical data...
Loading historical data...
Loading historical data...
Loading historical data...

Documentation

Showing up to 5 results
|